START_TIME,STEP,MOV.,P11,t_acc.,P23,t_acc.,P27,t_acc.,A4,t_acc.
1979-07-02 18:00:23.970 ,0,1,0.,4.8,0.,4.8,0.,4.8,0.,4.8
1979-07-02 18:00:28.770 ,0,1,1.,4.8,0.,4.8,0.,4.8,0.,4.8
1979-07-02 18:00:33.570 ,0,1,0.,4.8,1.,4.8,0.,4.8,0.,4.8
1979-07-02 18:00:38.370 ,0,1,0.,4.8,0.,4.8,0.,4.8,0.,4.8
1979-07-02 18:00:43.170 ,0,1,0.,4.8,0.,4.8,0.,4.8,0.,4.8
1979-07-02 18:00:47.970 ,4,1,0.,4.8,0.,4.8,0.,4.8,0.,4.8
1979-07-02 18:00:52.770 ,4,1,0.,4.8,1.,4.8,0.,4.8,0.,4.8
1979-07-02 18:00:57.570 ,4,1,0.,4.8,0.,4.8,0.,4.8,0.,4.8
1979-07-02 18:01:02.370 ,4,1,1.,4.8,0.,4.8,0.,4.8,0.,4.8
1979-07-02 18:01:07.170 ,4,1,0.,4.8,0.,4.8,0.,4.8,0.,4.8
1979-07-02 18:01:11.970 ,7,1,0.,4.8,0.,4.8,0.,4.8,0.,4.8
1979-07-02 18:01:16.770 ,7,1,0.,4.8,0.,4.8,0.,4.8,0.,4.8
1979-07-02 18:01:21.570 ,7,1,0.,4.8,0.,4.8,0.,4.8,0.,4.8
1979-07-02 18:01:26.370 ,7,1,0.,4.8,0.,4.8,0.,4.8,0.,4.8
1979-07-02 18:01:31.170 ,7,1,0.,4.8,0.,4.8,0.,4.8,0.,4.8
1979-07-02 18:01:35.970 ,3,1,0.,4.8,0.,4.8,0.,4.8,0.,4.8
1979-07-02 18:01:40.770 ,3,1,0.,4.8,0.,4.8,0.,4.8,0.,4.8
1979-07-02 18:01:45.570 ,3,1,0.,4.8,0.,4.8,0.,4.8,0.,4.8
1979-07-02 18:01:50.370 ,3,1,1.,4.8,0.,4.8,0.,4.8,0.,4.8
1979-07-02 18:01:55.170 ,3,1,0.,4.8,0.,4.8,0.,4.8,0.,4.8
1979-07-02 18:01:59.970 ,0,1,0.,4.8,0.,4.8,0.,4.8,0.,4.8
1979-07-02 18:02:04.770 ,0,1,0.,4.8,0.,4.8,1.,4.8,0.,4.8
1979-07-02 18:02:09.570 ,0,1,1.,4.8,0.,4.8,0.,4.8,0.,4.8
1979-07-02 18:02:14.370 ,0,1,0.,4.8,0.,4.8,0.,4.8,0.,4.8
1979-07-02 18:02:19.170 ,0,1,1.,4.8,0.,4.8,0.,4.8,0.,4.8
1979-07-02 18:02:23.970 ,4,1,2.,4.8,0.,4.8,0.,4.8,0.,4.8
1979-07-02 18:02:28.770 ,4,1,0.,4.8,0.,4.8,0.,4.8,0.,4.8
1979-07-02 18:02:33.570 ,4,1,0.,4.8,0.,4.8,0.,4.8,0.,4.8
1979-07-02 18:02:38.370 ,4,1,1.,4.8,0.,4.8,0.,4.8,0.,4.8
1979-07-02 18:02:43.170 ,4,1,1.,4.8,0.,4.8,0.,4.8,0.,4.8
1979-07-02 18:02:47.970 ,7,1,0.,4.8,0.,4.8,0.,4.8,0.,4.8
1979-07-02 18:02:52.770 ,7,1,0.,4.8,0.,4.8,0.,4.8,0.,4.8
1979-07-02 18:02:57.570 ,7,1,0.,4.8,0.,4.8,0.,4.8,0.,4.8
1979-07-02 18:03:02.370 ,7,1,0.,4.8,0.,4.8,0.,4.8,0.,4.8
1979-07-02 18:03:07.170 ,7,1,0.,4.8,0.,4.8,0.,4.8,0.,4.8
1979-07-02 18:03:11.970 ,3,1,1.,4.8,0.,4.8,0.,4.8,0.,4.8
1979-07-02 18:03:16.770 ,3,1,1.,4.8,0.,4.8,0.,4.8,0.,4.8
1979-07-02 18:03:21.570 ,3,1,1.,4.8,0.,4.8,0.,4.8,0.,4.8
1979-07-02 18:03:26.370 ,3,1,1.,4.8,0.,4.8,0.,4.8,0.,4.8
1979-07-02 18:03:31.170 ,3,1,2.,4.8,0.,4.8,0.,4.8,0.,4.8
1979-07-02 18:03:35.970 ,0,1,1.,4.8,0.,4.8,0.,4.8,0.,4.8
1979-07-02 18:03:40.770 ,0,1,0.,4.8,0.,4.8,0.,4.8,0.,4.8
1979-07-02 18:03:45.570 ,0,1,1.,4.8,0.,4.8,0.,4.8,0.,4.8
1979-07-02 18:03:50.370 ,0,1,0.,4.8,0.,4.8,0.,4.8,0.,4.8
1979-07-02 18:03:55.170 ,0,1,1.,4.8,0.,4.8,0.,4.8,0.,4.8
1979-07-02 18:03:59.970 ,4,1,0.,4.8,0.,4.8,1.,4.8,0.,4.8
1979-07-02 18:04:04.770 ,4,1,0.,4.8,0.,4.8,0.,4.8,0.,4.8
1979-07-02 18:04:09.570 ,4,1,0.,4.8,0.,4.8,0.,4.8,0.,4.8
1979-07-02 18:04:14.370 ,4,1,0.,4.8,0.,4.8,0.,4.8,0.,4.8
1979-07-02 18:04:19.170 ,4,1,0.,4.8,0.,4.8,0.,4.8,0.,4.8
1979-07-02 18:04:23.970 ,7,1,0.,4.8,0.,4.8,0.,4.8,0.,4.8
1979-07-02 18:04:28.770 ,7,1,0.,4.8,0.,4.8,0.,4.8,0.,4.8
1979-07-02 18:04:33.570 ,7,1,0.,4.8,0.,4.8,0.,4.8,0.,4.8
1979-07-02 18:04:38.370 ,7,1,0.,4.8,0.,4.8,0.,4.8,0.,4.8
1979-07-02 18:04:43.170 ,7,1,0.,4.8,0.,4.8,0.,4.8,0.,4.8
1979-07-02 18:04:47.970 ,3,1,0.,4.8,0.,4.8,0.,4.8,0.,4.8
1979-07-02 18:04:52.770 ,3,1,0.,4.8,0.,4.8,0.,4.8,0.,4.8
1979-07-02 18:04:57.570 ,3,1,0.,4.8,0.,4.8,1.,4.8,0.,4.8
1979-07-02 18:05:02.370 ,3,1,0.,4.8,0.,4.8,0.,4.8,0.,4.8
1979-07-02 18:05:07.170 ,3,1,0.,4.8,0.,4.8,0.,4.8,0.,4.8
1979-07-02 18:05:11.970 ,0,1,3.,4.8,0.,4.8,0.,4.8,0.,4.8
1979-07-02 18:05:16.770 ,0,1,0.,4.8,0.,4.8,0.,4.8,0.,4.8
1979-07-02 18:05:21.570 ,0,1,1.,4.8,0.,4.8,0.,4.8,0.,4.8
1979-07-02 18:05:26.370 ,0,1,0.,4.8,0.,4.8,0.,4.8,0.,4.8
1979-07-02 18:05:31.170 ,0,1,0.,4.8,0.,4.8,0.,4.8,0.,4.8
1979-07-02 18:05:35.970 ,0,0,0.,4.8,0.,4.8,0.,4.8,1.,4.8
1979-07-02 18:05:40.770 ,0,0,0.,4.8,0.,4.8,0.,4.8,0.,4.8
1979-07-02 18:05:45.570 ,0,0,0.,4.8,0.,4.8,0.,4.8,0.,4.8
1979-07-02 18:05:50.370 ,0,0,0.,4.8,0.,4.8,0.,4.8,0.,4.8
1979-07-02 18:05:55.170 ,0,0,0.,4.8,0.,4.8,1.,4.8,0.,4.8
1979-07-02 18:05:59.970 ,0,0,0.,4.8,0.,4.8,0.,4.8,0.,4.8
1979-07-02 18:06:04.770 ,0,0,0.,4.8,0.,4.8,0.,4.8,0.,4.8
1979-07-02 18:06:09.570 ,0,0,1.,4.8,0.,4.8,0.,4.8,0.,4.8
1979-07-02 18:06:14.370 ,0,0,1.,4.8,0.,4.8,0.,4.8,0.,4.8
1979-07-02 18:06:19.170 ,0,0,0.,4.8,0.,4.8,0.,4.8,0.,4.8
1979-07-02 18:06:23.970 ,5,0,0.,4.8,0.,4.8,0.,4.8,0.,4.8
1979-07-02 18:06:28.770 ,5,0,0.,4.8,0.,4.8,0.,4.8,0.,4.8
1979-07-02 18:06:33.570 ,5,0,1.,4.8,0.,4.8,0.,4.8,0.,4.8
1979-07-02 18:06:38.370 ,5,0,0.,4.8,0.,4.8,0.,4.8,0.,4.8
1979-07-02 18:06:43.170 ,5,0,1.,4.8,0.,4.8,0.,4.8,0.,4.8
1979-07-02 18:06:47.970 ,5,0,0.,4.8,0.,4.8,0.,4.8,0.,4.8
1979-07-02 18:06:52.770 ,5,0,1.,4.8,0.,4.8,2.,4.8,0.,4.8
1979-07-02 18:06:57.570 ,5,0,0.,4.8,0.,4.8,0.,4.8,0.,4.8
1979-07-02 18:07:02.370 ,5,0,0.,4.8,0.,4.8,0.,4.8,0.,4.8
1979-07-02 18:07:07.170 ,5,0,0.,4.8,0.,4.8,0.,4.8,0.,4.8
1979-07-02 18:07:11.970 ,4,0,0.,4.8,0.,4.8,0.,4.8,0.,4.8
1979-07-02 18:07:16.770 ,4,0,0.,4.8,0.,4.8,0.,4.8,0.,4.8
1979-07-02 18:07:21.570 ,4,0,0.,4.8,0.,4.8,0.,4.8,1.,4.8
1979-07-02 18:07:26.370 ,4,0,0.,4.8,0.,4.8,0.,4.8,0.,4.8
1979-07-02 18:07:31.170 ,4,0,0.,4.8,0.,4.8,0.,4.8,0.,4.8
1979-07-02 18:07:35.970 ,4,0,0.,4.8,0.,4.8,0.,4.8,0.,4.8
1979-07-02 18:07:40.770 ,4,0,0.,4.8,0.,4.8,0.,4.8,0.,4.8
1979-07-02 18:07:45.570 ,4,0,1.,4.8,0.,4.8,0.,4.8,0.,4.8
1979-07-02 18:07:50.370 ,4,0,0.,4.8,0.,4.8,0.,4.8,0.,4.8
1979-07-02 18:07:55.170 ,4,0,0.,4.8,0.,4.8,0.,4.8,0.,4.8
1979-07-02 18:07:59.970 ,3,0,1.,4.8,0.,4.8,0.,4.8,0.,4.8
1979-07-02 18:08:04.770 ,3,0,0.,4.8,0.,4.8,0.,4.8,0.,4.8
1979-07-02 18:08:09.570 ,3,0,0.,4.8,0.,4.8,0.,4.8,0.,4.8
1979-07-02 18:08:14.370 ,3,0,0.,4.8,0.,4.8,0.,4.8,0.,4.8
1979-07-02 18:08:19.170 ,3,0,1.,4.8,0.,4.8,1.,4.8,0.,4.8
1979-07-02 18:08:23.970 ,3,0,0.,4.8,0.,4.8,0.,4.8,0.,4.8
1979-07-02 18:08:28.770 ,3,0,0.,4.8,0.,4.8,0.,4.8,0.,4.8
1979-07-02 18:08:33.570 ,3,0,0.,4.8,0.,4.8,0.,4.8,0.,4.8
1979-07-02 18:08:38.370 ,3,0,0.,4.8,0.,4.8,0.,4.8,0.,4.8
1979-07-02 18:08:43.170 ,3,0,0.,4.8,0.,4.8,0.,4.8,0.,4.8
1979-07-02 18:08:47.970 ,2,0,0.,4.8,0.,4.8,1.,4.8,0.,4.8
1979-07-02 18:08:52.770 ,2,0,0.,4.8,0.,4.8,0.,4.8,0.,4.8
1979-07-02 18:08:57.570 ,2,0,1.,4.8,0.,4.8,0.,4.8,0.,4.8
1979-07-02 18:09:02.370 ,2,0,1.,4.8,0.,4.8,0.,4.8,0.,4.8
1979-07-02 18:09:07.170 ,2,0,0.,4.8,0.,4.8,0.,4.8,0.,4.8
1979-07-02 18:09:11.970 ,2,0,0.,4.8,0.,4.8,0.,4.8,0.,4.8
1979-07-02 18:09:16.770 ,2,0,0.,4.8,0.,4.8,0.,4.8,0.,4.8
1979-07-02 18:09:21.570 ,2,0,0.,4.8,0.,4.8,0.,4.8,0.,4.8
1979-07-02 18:09:26.370 ,2,0,1.,4.8,0.,4.8,0.,4.8,0.,4.8
1979-07-02 18:09:31.170 ,2,0,0.,4.8,0.,4.8,0.,4.8,0.,4.8
1979-07-02 18:09:35.970 ,1,0,1.,4.8,0.,4.8,0.,4.8,0.,4.8
1979-07-02 18:09:40.770 ,1,0,0.,4.8,0.,4.8,1.,4.8,0.,4.8
1979-07-02 18:09:45.570 ,1,0,0.,4.8,0.,4.8,0.,4.8,0.,4.8
1979-07-02 18:09:50.370 ,1,0,1.,4.8,0.,4.8,0.,4.8,0.,4.8
1979-07-02 18:09:55.170 ,1,0,0.,4.8,1.,4.8,0.,4.8,0.,4.8
1979-07-02 18:09:59.970 ,1,0,1.,4.8,0.,4.8,1.,4.8,0.,4.8
1979-07-02 18:10:04.770 ,1,0,0.,4.8,0.,4.8,1.,4.8,0.,4.8
1979-07-02 18:10:09.570 ,1,0,0.,4.8,0.,4.8,0.,4.8,0.,4.8
1979-07-02 18:10:14.370 ,1,0,0.,4.8,0.,4.8,0.,4.8,0.,4.8
1979-07-02 18:10:19.170 ,1,0,0.,4.8,0.,4.8,0.,4.8,0.,4.8
1979-07-02 18:10:23.970 ,0,0,0.,4.8,0.,4.8,0.,4.8,0.,4.8
1979-07-02 18:10:28.770 ,0,0,0.,4.8,0.,4.8,0.,4.8,0.,4.8
1979-07-02 18:10:33.570 ,0,0,0.,4.8,0.,4.8,0.,4.8,0.,4.8
1979-07-02 18:10:38.370 ,0,0,0.,4.8,0.,4.8,0.,4.8,0.,4.8
1979-07-02 18:10:43.170 ,0,0,0.,4.8,0.,4.8,0.,4.8,0.,4.8
1979-07-02 18:10:47.970 ,0,0,0.,4.8,0.,4.8,0.,4.8,0.,4.8
1979-07-02 18:10:52.770 ,0,0,0.,4.8,0.,4.8,0.,4.8,0.,4.8
1979-07-02 18:10:57.570 ,0,0,0.,4.8,0.,4.8,0.,4.8,0.,4.8
1979-07-02 18:11:02.370 ,0,0,1.,4.8,0.,4.8,0.,4.8,0.,4.8
1979-07-02 18:11:07.170 ,0,0,0.,4.8,0.,4.8,0.,4.8,0.,4.8
1979-07-02 18:11:11.970 ,0,0,0.,4.8,0.,4.8,0.,4.8,0.,4.8
1979-07-02 18:11:16.770 ,0,0,1.,4.8,0.,4.8,0.,4.8,0.,4.8
1979-07-02 18:11:21.570 ,0,0,0.,4.8,0.,4.8,0.,4.8,0.,4.8
1979-07-02 18:11:26.370 ,0,0,0.,4.8,0.,4.8,0.,4.8,0.,4.8
1979-07-02 18:11:31.170 ,0,0,1.,4.8,0.,4.8,0.,4.8,1.,4.8
1979-07-02 18:11:35.970 ,0,0,2.,4.8,0.,4.8,0.,4.8,0.,4.8
1979-07-02 18:11:40.770 ,0,0,0.,4.8,0.,4.8,0.,4.8,0.,4.8
1979-07-02 18:11:45.570 ,0,0,0.,4.8,0.,4.8,0.,4.8,0.,4.8
1979-07-02 18:11:50.370 ,0,0,0.,4.8,0.,4.8,0.,4.8,0.,4.8
1979-07-02 18:11:55.170 ,0,0,0.,4.8,0.,4.8,1.,4.8,0.,4.8
1979-07-02 18:11:59.970 ,1,0,0.,4.8,0.,4.8,1.,4.8,0.,4.8
1979-07-02 18:12:04.770 ,1,0,0.,4.8,0.,4.8,0.,4.8,0.,4.8
1979-07-02 18:12:09.570 ,1,0,0.,4.8,0.,4.8,0.,4.8,0.,4.8
1979-07-02 18:12:14.370 ,1,0,0.,4.8,0.,4.8,0.,4.8,0.,4.8
1979-07-02 18:12:19.170 ,1,0,0.,4.8,0.,4.8,0.,4.8,0.,4.8
1979-07-02 18:12:23.970 ,1,0,2.,4.8,0.,4.8,0.,4.8,0.,4.8
1979-07-02 18:12:28.770 ,1,0,1.,4.8,0.,4.8,0.,4.8,0.,4.8
1979-07-02 18:12:33.570 ,1,0,0.,4.8,0.,4.8,0.,4.8,0.,4.8
1979-07-02 18:12:38.370 ,1,0,1.,4.8,0.,4.8,0.,4.8,0.,4.8
1979-07-02 18:12:43.170 ,1,0,0.,4.8,0.,4.8,0.,4.8,0.,4.8
1979-07-02 18:12:47.970 ,2,0,0.,4.8,0.,4.8,1.,4.8,0.,4.8
1979-07-02 18:12:52.770 ,2,0,0.,4.8,0.,4.8,0.,4.8,0.,4.8
1979-07-02 18:12:57.570 ,2,0,0.,4.8,0.,4.8,0.,4.8,0.,4.8
1979-07-02 18:13:02.370 ,2,0,0.,4.8,0.,4.8,0.,4.8,0.,4.8
1979-07-02 18:13:07.170 ,2,0,0.,4.8,0.,4.8,0.,4.8,0.,4.8
1979-07-02 18:13:11.970 ,2,0,0.,4.8,0.,4.8,0.,4.8,0.,4.8
1979-07-02 18:13:16.770 ,2,0,0.,4.8,0.,4.8,0.,4.8,1.,4.8
1979-07-02 18:13:21.570 ,2,0,1.,4.8,0.,4.8,0.,4.8,0.,4.8
1979-07-02 18:13:26.370 ,2,0,0.,4.8,0.,4.8,0.,4.8,0.,4.8
1979-07-02 18:13:31.170 ,2,0,0.,4.8,0.,4.8,0.,4.8,0.,4.8
1979-07-02 18:13:35.970 ,3,0,0.,4.8,0.,4.8,1.,4.8,0.,4.8
1979-07-02 18:13:40.770 ,3,0,0.,4.8,0.,4.8,0.,4.8,0.,4.8
1979-07-02 18:13:45.570 ,3,0,0.,4.8,0.,4.8,0.,4.8,1.,4.8
1979-07-02 18:13:50.370 ,3,0,0.,4.8,0.,4.8,0.,4.8,0.,4.8
1979-07-02 18:13:55.170 ,3,0,0.,4.8,0.,4.8,0.,4.8,0.,4.8
1979-07-02 18:13:59.970 ,3,0,0.,4.8,1.,4.8,0.,4.8,0.,4.8
1979-07-02 18:14:04.770 ,3,0,0.,4.8,0.,4.8,0.,4.8,0.,4.8
1979-07-02 18:14:09.570 ,3,0,0.,4.8,1.,4.8,0.,4.8,0.,4.8
1979-07-02 18:14:14.370 ,3,0,1.,4.8,0.,4.8,0.,4.8,0.,4.8
1979-07-02 18:14:19.170 ,3,0,0.,4.8,0.,4.8,0.,4.8,0.,4.8
1979-07-02 18:14:23.970 ,4,0,0.,4.8,0.,4.8,0.,4.8,0.,4.8
1979-07-02 18:14:28.770 ,4,0,0.,4.8,0.,4.8,0.,4.8,0.,4.8
1979-07-02 18:14:33.570 ,4,0,0.,4.8,0.,4.8,0.,4.8,0.,4.8
1979-07-02 18:14:38.370 ,4,0,0.,4.8,0.,4.8,0.,4.8,0.,4.8
1979-07-02 18:14:43.170 ,4,0,0.,4.8,0.,4.8,0.,4.8,0.,4.8
1979-07-02 18:14:47.970 ,4,0,0.,4.8,0.,4.8,0.,4.8,0.,4.8
1979-07-02 18:14:52.770 ,4,0,0.,4.8,0.,4.8,1.,4.8,0.,4.8
1979-07-02 18:14:57.570 ,4,0,0.,4.8,0.,4.8,0.,4.8,0.,4.8
1979-07-02 18:15:02.370 ,4,0,0.,4.8,0.,4.8,0.,4.8,0.,4.8
1979-07-02 18:15:07.170 ,4,0,1.,4.8,0.,4.8,0.,4.8,0.,4.8
1979-07-02 18:15:11.970 ,5,0,1.,4.8,0.,4.8,0.,4.8,0.,4.8
1979-07-02 18:15:16.770 ,5,0,2.,4.8,0.,4.8,0.,4.8,0.,4.8
1979-07-02 18:15:21.570 ,5,0,0.,4.8,0.,4.8,0.,4.8,0.,4.8
1979-07-02 18:15:26.370 ,5,0,3.,4.8,0.,4.8,0.,4.8,0.,4.8
1979-07-02 18:15:31.170 ,5,0,2.,4.8,0.,4.8,0.,4.8,0.,4.8
1979-07-02 18:15:35.970 ,5,0,0.,4.8,0.,4.8,0.,4.8,0.,4.8
1979-07-02 18:15:40.770 ,5,0,1.,4.8,0.,4.8,0.,4.8,0.,4.8
1979-07-02 18:15:45.570 ,5,0,0.,4.8,0.,4.8,0.,4.8,0.,4.8
1979-07-02 18:15:50.370 ,5,0,0.,4.8,0.,4.8,0.,4.8,0.,4.8
1979-07-02 18:15:55.170 ,5,0,0.,4.8,0.,4.8,0.,4.8,0.,4.8
1979-07-02 18:15:59.970 ,6,0,1.,4.8,0.,4.8,0.,4.8,0.,4.8
1979-07-02 18:16:04.770 ,6,0,0.,4.8,0.,4.8,0.,4.8,0.,4.8
1979-07-02 18:16:09.570 ,6,0,0.,4.8,0.,4.8,0.,4.8,0.,4.8
1979-07-02 18:16:14.370 ,6,0,1.,4.8,0.,4.8,0.,4.8,0.,4.8
1979-07-02 18:16:19.170 ,6,0,0.,4.8,0.,4.8,0.,4.8,0.,4.8
1979-07-02 18:16:23.970 ,6,0,0.,4.8,0.,4.8,0.,4.8,0.,4.8
1979-07-02 18:16:28.770 ,6,0,1.,4.8,0.,4.8,0.,4.8,0.,4.8
1979-07-02 18:16:33.570 ,6,0,3.,4.8,0.,4.8,0.,4.8,0.,4.8
1979-07-02 18:16:38.370 ,6,0,1.,4.8,0.,4.8,0.,4.8,0.,4.8
1979-07-02 18:16:43.170 ,6,0,0.,4.8,0.,4.8,0.,4.8,0.,4.8
1979-07-02 18:16:47.970 ,7,0,0.,4.8,0.,4.8,0.,4.8,0.,4.8
1979-07-02 18:16:52.770 ,7,0,0.,4.8,0.,4.8,0.,4.8,0.,4.8
1979-07-02 18:16:57.570 ,7,0,0.,4.8,0.,4.8,0.,4.8,0.,4.8
1979-07-02 18:17:02.370 ,7,0,0.,4.8,0.,4.8,0.,4.8,0.,4.8
1979-07-02 18:17:07.170 ,7,0,0.,4.8,1.,4.8,0.,4.8,0.,4.8
1979-07-02 18:17:11.970 ,7,0,0.,4.8,0.,4.8,0.,4.8,0.,4.8
1979-07-02 18:17:16.770 ,7,0,0.,4.8,0.,4.8,1.,4.8,0.,4.8
1979-07-02 18:17:21.570 ,7,0,1.,4.8,0.,4.8,0.,4.8,0.,4.8
1979-07-02 18:17:26.370 ,7,0,0.,4.8,0.,4.8,0.,4.8,0.,4.8
1979-07-02 18:17:31.170 ,7,0,2.,4.8,0.,4.8,0.,4.8,0.,4.8
1979-07-02 18:17:35.970 ,7,0,1.,4.8,0.,4.8,0.,4.8,0.,4.8
1979-07-02 18:17:40.770 ,7,0,0.,4.8,0.,4.8,0.,4.8,0.,4.8
1979-07-02 18:17:45.570 ,7,0,0.,4.8,0.,4.8,0.,4.8,0.,4.8
1979-07-02 18:17:50.370 ,7,0,1.,4.8,0.,4.8,0.,4.8,0.,4.8
1979-07-02 18:17:55.170 ,7,0,1.,4.8,0.,4.8,0.,4.8,0.,4.8
1979-07-02 18:17:59.970 ,7,0,0.,4.8,1.,4.8,1.,4.8,0.,4.8
1979-07-02 18:18:04.770 ,7,0,3.,4.8,0.,4.8,1.,4.8,0.,4.8
1979-07-02 18:18:09.570 ,7,0,1.,4.8,0.,4.8,0.,4.8,0.,4.8
1979-07-02 18:18:14.370 ,7,0,0.,4.8,0.,4.8,0.,4.8,0.,4.8
1979-07-02 18:18:19.170 ,7,0,0.,4.8,0.,4.8,0.,4.8,0.,4.8
1979-07-02 18:18:23.970 ,6,0,0.,4.8,0.,4.8,0.,4.8,0.,4.8
1979-07-02 18:18:28.770 ,6,0,0.,4.8,0.,4.8,0.,4.8,0.,4.8
1979-07-02 18:18:33.570 ,6,0,0.,4.8,0.,4.8,0.,4.8,0.,4.8
1979-07-02 18:18:38.370 ,6,0,1.,4.8,0.,4.8,0.,4.8,0.,4.8
1979-07-02 18:18:43.170 ,6,0,0.,4.8,0.,4.8,0.,4.8,0.,4.8
1979-07-02 18:18:47.970 ,6,0,0.,4.8,0.,4.8,0.,4.8,0.,4.8
1979-07-02 18:18:52.770 ,6,0,0.,4.8,0.,4.8,0.,4.8,0.,4.8
1979-07-02 18:18:57.570 ,6,0,1.,4.8,0.,4.8,0.,4.8,0.,4.8
1979-07-02 18:19:02.370 ,6,0,1.,4.8,0.,4.8,0.,4.8,0.,4.8
1979-07-02 18:19:07.170 ,6,0,0.,4.8,0.,4.8,0.,4.8,0.,4.8
1979-07-02 18:19:11.970 ,5,0,1.,4.8,0.,4.8,0.,4.8,0.,4.8
1979-07-02 18:19:16.770 ,5,0,0.,4.8,0.,4.8,1.,4.8,0.,4.8
1979-07-02 18:19:21.570 ,5,0,1.,4.8,0.,4.8,0.,4.8,0.,4.8
1979-07-02 18:19:26.370 ,5,0,1.,4.8,1.,4.8,0.,4.8,0.,4.8
1979-07-02 18:19:31.170 ,5,0,1.,4.8,0.,4.8,0.,4.8,0.,4.8
1979-07-02 18:19:35.970 ,5,0,0.,4.8,1.,4.8,0.,4.8,0.,4.8
1979-07-02 18:19:40.770 ,5,0,0.,4.8,0.,4.8,0.,4.8,0.,4.8
1979-07-02 18:19:45.570 ,5,0,0.,4.8,0.,4.8,0.,4.8,0.,4.8
1979-07-02 18:19:50.370 ,5,0,1.,4.8,0.,4.8,0.,4.8,0.,4.8
1979-07-02 18:19:55.170 ,5,0,0.,4.8,0.,4.8,0.,4.8,0.,4.8
1979-07-02 18:19:59.970 ,4,0,1.,4.8,0.,4.8,0.,4.8,0.,4.8
1979-07-02 18:20:04.770 ,4,0,0.,4.8,0.,4.8,0.,4.8,0.,4.8
1979-07-02 18:20:09.570 ,4,0,1.,4.8,0.,4.8,1.,4.8,0.,4.8
1979-07-02 18:20:14.370 ,4,0,0.,4.8,0.,4.8,0.,4.8,0.,4.8
1979-07-02 18:20:19.170 ,4,0,0.,4.8,0.,4.8,0.,4.8,0.,4.8
1979-07-02 18:20:23.970 ,4,0,2.,4.8,0.,4.8,0.,4.8,0.,4.8
1979-07-02 18:20:28.770 ,4,0,0.,4.8,1.,4.8,1.,4.8,0.,4.8
1979-07-02 18:20:33.570 ,4,0,0.,4.8,0.,4.8,0.,4.8,0.,4.8
1979-07-02 18:20:38.370 ,4,0,1.,4.8,0.,4.8,0.,4.8,0.,4.8
1979-07-02 18:20:43.170 ,4,0,0.,4.8,0.,4.8,0.,4.8,0.,4.8
1979-07-02 18:20:47.970 ,3,0,0.,4.8,0.,4.8,0.,4.8,0.,4.8
1979-07-02 18:20:52.770 ,3,0,1.,4.8,0.,4.8,0.,4.8,0.,4.8
1979-07-02 18:20:57.570 ,3,0,0.,4.8,1.,4.8,0.,4.8,0.,4.8
1979-07-02 18:21:02.370 ,3,0,0.,4.8,0.,4.8,0.,4.8,0.,4.8
1979-07-02 18:21:07.170 ,3,0,3.,4.8,0.,4.8,0.,4.8,0.,4.8
1979-07-02 18:21:11.970 ,3,0,0.,4.8,0.,4.8,0.,4.8,0.,4.8
1979-07-02 18:21:16.770 ,3,0,0.,4.8,0.,4.8,0.,4.8,0.,4.8
1979-07-02 18:21:21.570 ,3,0,0.,4.8,0.,4.8,0.,4.8,0.,4.8
1979-07-02 18:21:26.370 ,3,0,0.,4.8,0.,4.8,0.,4.8,1.,4.8
1979-07-02 18:21:31.170 ,3,0,0.,4.8,0.,4.8,0.,4.8,0.,4.8
1979-07-02 18:21:35.970 ,2,0,0.,4.8,0.,4.8,0.,4.8,0.,4.8
1979-07-02 18:21:40.770 ,2,0,1.,4.8,0.,4.8,0.,4.8,0.,4.8
1979-07-02 18:21:45.570 ,2,0,1.,4.8,0.,4.8,0.,4.8,0.,4.8
1979-07-02 18:21:50.370 ,2,0,0.,4.8,0.,4.8,0.,4.8,0.,4.8
1979-07-02 18:21:55.170 ,2,0,1.,4.8,0.,4.8,0.,4.8,0.,4.8
1979-07-02 18:21:59.970 ,2,0,0.,4.8,0.,4.8,0.,4.8,0.,4.8
1979-07-02 18:22:04.770 ,2,0,0.,4.8,0.,4.8,0.,4.8,0.,4.8
1979-07-02 18:22:09.570 ,2,0,1.,4.8,0.,4.8,0.,4.8,0.,4.8
1979-07-02 18:22:14.370 ,2,0,1.,4.8,0.,4.8,0.,4.8,0.,4.8
1979-07-02 18:22:19.170 ,2,0,0.,4.8,0.,4.8,0.,4.8,0.,4.8
1979-07-02 18:22:23.970 ,1,0,0.,4.8,0.,4.8,0.,4.8,0.,4.8
1979-07-02 18:22:28.770 ,1,0,0.,4.8,0.,4.8,0.,4.8,0.,4.8
1979-07-02 18:22:33.570 ,1,0,1.,4.8,0.,4.8,0.,4.8,0.,4.8
1979-07-02 18:22:38.370 ,1,0,0.,4.8,0.,4.8,0.,4.8,0.,4.8
1979-07-02 18:22:43.170 ,1,0,0.,4.8,0.,4.8,0.,4.8,0.,4.8
1979-07-02 18:22:47.970 ,1,0,0.,4.8,0.,4.8,1.,4.8,0.,4.8
1979-07-02 18:22:52.770 ,1,0,0.,4.8,0.,4.8,1.,4.8,0.,4.8
1979-07-02 18:22:57.570 ,1,0,0.,4.8,0.,4.8,0.,4.8,0.,4.8
1979-07-02 18:23:02.370 ,1,0,1.,4.8,0.,4.8,0.,4.8,0.,4.8
1979-07-02 18:23:07.170 ,1,0,1.,4.8,0.,4.8,0.,4.8,0.,4.8
1979-07-02 18:23:59.970 ,0,0,0.,4.8,0.,4.8,0.,4.8,0.,4.8
1979-07-02 18:24:04.770 ,0,0,0.,4.8,0.,4.8,0.,4.8,0.,4.8
1979-07-02 18:24:09.570 ,0,0,0.,4.8,0.,4.8,0.,4.8,0.,4.8
1979-07-02 18:24:14.370 ,0,0,0.,4.8,0.,4.8,0.,4.8,0.,4.8
1979-07-02 18:24:19.170 ,0,0,0.,4.8,0.,4.8,0.,4.8,0.,4.8
1979-07-02 18:24:23.970 ,0,0,0.,4.8,0.,4.8,0.,4.8,0.,4.8
1979-07-02 18:24:28.770 ,0,0,0.,4.8,0.,4.8,0.,4.8,0.,4.8
1979-07-02 18:24:33.570 ,0,0,0.,4.8,0.,4.8,0.,4.8,0.,4.8
1979-07-02 18:24:38.370 ,0,0,0.,4.8,0.,4.8,1.,4.8,1.,4.8
1979-07-02 18:24:43.170 ,0,0,0.,4.8,0.,4.8,0.,4.8,0.,4.8
1979-07-02 18:24:47.970 ,1,0,2.,4.8,0.,4.8,0.,4.8,0.,4.8
1979-07-02 18:24:52.770 ,1,0,0.,4.8,0.,4.8,0.,4.8,0.,4.8
1979-07-02 18:24:57.570 ,1,0,1.,4.8,0.,4.8,1.,4.8,0.,4.8
1979-07-02 18:25:02.370 ,1,0,0.,4.8,0.,4.8,0.,4.8,0.,4.8
1979-07-02 18:25:07.170 ,1,0,0.,4.8,0.,4.8,0.,4.8,0.,4.8
1979-07-02 18:25:11.970 ,1,0,0.,4.8,1.,4.8,0.,4.8,0.,4.8
1979-07-02 18:25:16.770 ,1,0,0.,4.8,0.,4.8,0.,4.8,0.,4.8
1979-07-02 18:25:21.570 ,1,0,1.,4.8,0.,4.8,0.,4.8,0.,4.8
1979-07-02 18:25:26.370 ,1,0,0.,4.8,0.,4.8,0.,4.8,0.,4.8
1979-07-02 18:25:31.170 ,1,0,1.,4.8,0.,4.8,0.,4.8,0.,4.8
1979-07-02 18:25:35.970 ,2,0,0.,4.8,0.,4.8,0.,4.8,0.,4.8
1979-07-02 18:25:40.770 ,2,0,0.,4.8,0.,4.8,0.,4.8,0.,4.8
1979-07-02 18:25:45.570 ,2,0,0.,4.8,0.,4.8,0.,4.8,0.,4.8
1979-07-02 18:25:50.370 ,2,0,0.,4.8,0.,4.8,0.,4.8,0.,4.8
1979-07-02 18:25:55.170 ,2,0,1.,4.8,0.,4.8,0.,4.8,0.,4.8
1979-07-02 18:25:59.970 ,2,0,0.,4.8,0.,4.8,0.,4.8,0.,4.8
1979-07-02 18:26:04.770 ,2,0,0.,4.8,0.,4.8,0.,4.8,0.,4.8
1979-07-02 18:26:09.570 ,2,0,0.,4.8,0.,4.8,0.,4.8,0.,4.8
1979-07-02 18:26:14.370 ,2,0,0.,4.8,0.,4.8,0.,4.8,0.,4.8
1979-07-02 18:26:19.170 ,2,0,0.,4.8,0.,4.8,0.,4.8,0.,4.8
1979-07-02 18:26:23.970 ,3,0,1.,4.8,0.,4.8,0.,4.8,0.,4.8
1979-07-02 18:26:28.770 ,3,0,0.,4.8,0.,4.8,0.,4.8,0.,4.8
1979-07-02 18:26:33.570 ,3,0,0.,4.8,0.,4.8,0.,4.8,0.,4.8
1979-07-02 18:26:38.370 ,3,0,0.,4.8,0.,4.8,0.,4.8,0.,4.8
1979-07-02 18:26:43.170 ,3,0,0.,4.8,0.,4.8,0.,4.8,0.,4.8
1979-07-02 18:26:47.970 ,3,0,1.,4.8,0.,4.8,0.,4.8,0.,4.8
1979-07-02 18:26:52.770 ,3,0,0.,4.8,0.,4.8,0.,4.8,0.,4.8
1979-07-02 18:26:57.570 ,3,0,0.,4.8,0.,4.8,0.,4.8,0.,4.8
1979-07-02 18:27:02.370 ,3,0,0.,4.8,0.,4.8,0.,4.8,0.,4.8
1979-07-02 18:27:07.170 ,3,0,0.,4.8,0.,4.8,0.,4.8,0.,4.8
1979-07-02 18:27:11.970 ,4,0,0.,4.8,0.,4.8,0.,4.8,0.,4.8
1979-07-02 18:27:16.770 ,4,0,1.,4.8,0.,4.8,0.,4.8,0.,4.8
1979-07-02 18:27:21.570 ,4,0,0.,4.8,0.,4.8,0.,4.8,0.,4.8
1979-07-02 18:27:26.370 ,4,0,0.,4.8,0.,4.8,0.,4.8,0.,4.8
1979-07-02 18:27:31.170 ,4,0,0.,4.8,0.,4.8,0.,4.8,0.,4.8
1979-07-02 18:27:35.970 ,4,0,0.,4.8,0.,4.8,0.,4.8,0.,4.8
1979-07-02 18:27:40.770 ,4,0,0.,4.8,0.,4.8,0.,4.8,0.,4.8
1979-07-02 18:27:45.570 ,4,0,1.,4.8,0.,4.8,0.,4.8,0.,4.8
1979-07-02 18:27:50.370 ,4,0,0.,4.8,0.,4.8,0.,4.8,0.,4.8
1979-07-02 18:27:55.170 ,4,0,0.,4.8,0.,4.8,0.,4.8,0.,4.8
1979-07-02 18:27:59.970 ,5,0,1.,4.8,0.,4.8,1.,4.8,0.,4.8
1979-07-02 18:28:04.770 ,5,0,0.,4.8,0.,4.8,0.,4.8,0.,4.8
1979-07-02 18:28:09.570 ,5,0,0.,4.8,0.,4.8,0.,4.8,0.,4.8
1979-07-02 18:28:14.370 ,5,0,0.,4.8,0.,4.8,0.,4.8,0.,4.8
1979-07-02 18:28:19.170 ,5,0,0.,4.8,0.,4.8,0.,4.8,0.,4.8
1979-07-02 18:28:23.970 ,5,0,0.,4.8,0.,4.8,0.,4.8,0.,4.8
1979-07-02 18:28:28.770 ,5,0,0.,4.8,0.,4.8,0.,4.8,0.,4.8
1979-07-02 18:28:33.570 ,5,0,0.,4.8,0.,4.8,0.,4.8,0.,4.8
1979-07-02 18:28:38.370 ,5,0,0.,4.8,0.,4.8,0.,4.8,0.,4.8
1979-07-02 18:28:43.170 ,5,0,1.,4.8,0.,4.8,0.,4.8,0.,4.8
1979-07-02 18:28:47.970 ,6,0,0.,4.8,0.,4.8,1.,4.8,0.,4.8
1979-07-02 18:28:52.770 ,6,0,0.,4.8,0.,4.8,0.,4.8,0.,4.8
1979-07-02 18:28:57.570 ,6,0,0.,4.8,0.,4.8,0.,4.8,0.,4.8
1979-07-02 18:29:02.370 ,6,0,0.,4.8,0.,4.8,0.,4.8,0.,4.8
1979-07-02 18:29:07.170 ,6,0,0.,4.8,0.,4.8,0.,4.8,0.,4.8
1979-07-02 18:29:11.970 ,6,0,1.,4.8,0.,4.8,0.,4.8,0.,4.8
1979-07-02 18:29:16.770 ,6,0,2.,4.8,0.,4.8,0.,4.8,0.,4.8
1979-07-02 18:29:21.570 ,6,0,0.,4.8,0.,4.8,0.,4.8,0.,4.8
1979-07-02 18:29:26.370 ,6,0,1.,4.8,0.,4.8,0.,4.8,0.,4.8
1979-07-02 18:29:31.170 ,6,0,0.,4.8,0.,4.8,0.,4.8,0.,4.8
1979-07-02 18:29:35.970 ,7,0,0.,4.8,0.,4.8,0.,4.8,0.,4.8
1979-07-02 18:29:40.770 ,7,0,0.,4.8,0.,4.8,0.,4.8,0.,4.8
1979-07-02 18:29:45.570 ,7,0,0.,4.8,0.,4.8,0.,4.8,0.,4.8
1979-07-02 18:29:50.370 ,7,0,1.,4.8,0.,4.8,0.,4.8,0.,4.8
1979-07-02 18:29:55.170 ,7,0,0.,4.8,0.,4.8,0.,4.8,0.,4.8
1979-07-02 18:29:59.970 ,7,0,0.,4.8,0.,4.8,0.,4.8,0.,4.8
1979-07-02 18:30:04.770 ,7,0,0.,4.8,0.,4.8,0.,4.8,0.,4.8
1979-07-02 18:30:09.570 ,7,0,1.,4.8,0.,4.8,0.,4.8,0.,4.8
1979-07-02 18:30:14.370 ,7,0,0.,4.8,0.,4.8,0.,4.8,0.,4.8
1979-07-02 18:30:19.170 ,7,0,0.,4.8,0.,4.8,0.,4.8,0.,4.8
1979-07-02 18:30:23.970 ,7,0,0.,4.8,0.,4.8,0.,4.8,0.,4.8
1979-07-02 18:30:28.770 ,7,0,0.,4.8,0.,4.8,0.,4.8,0.,4.8
1979-07-02 18:30:33.570 ,7,0,1.,4.8,0.,4.8,0.,4.8,0.,4.8
1979-07-02 18:30:38.370 ,7,0,0.,4.8,0.,4.8,0.,4.8,0.,4.8
1979-07-02 18:30:43.170 ,7,0,0.,4.8,0.,4.8,0.,4.8,0.,4.8
1979-07-02 18:30:47.970 ,7,0,0.,4.8,0.,4.8,0.,4.8,0.,4.8
1979-07-02 18:30:52.770 ,7,0,1.,4.8,0.,4.8,0.,4.8,0.,4.8
1979-07-02 18:30:57.570 ,7,0,0.,4.8,0.,4.8,0.,4.8,0.,4.8
1979-07-02 18:31:02.370 ,7,0,0.,4.8,0.,4.8,0.,4.8,0.,4.8
1979-07-02 18:31:07.170 ,7,0,0.,4.8,0.,4.8,0.,4.8,0.,4.8
1979-07-02 18:31:11.970 ,6,0,0.,4.8,0.,4.8,1.,4.8,0.,4.8
1979-07-02 18:31:16.770 ,6,0,0.,4.8,0.,4.8,1.,4.8,0.,4.8
1979-07-02 18:31:21.570 ,6,0,0.,4.8,0.,4.8,0.,4.8,0.,4.8
1979-07-02 18:31:26.370 ,6,0,1.,4.8,0.,4.8,0.,4.8,0.,4.8
1979-07-02 18:31:31.170 ,6,0,0.,4.8,0.,4.8,1.,4.8,0.,4.8
1979-07-02 18:31:35.970 ,6,0,0.,4.8,0.,4.8,0.,4.8,0.,4.8
1979-07-02 18:31:40.770 ,6,0,1.,4.8,0.,4.8,0.,4.8,0.,4.8
1979-07-02 18:31:45.570 ,6,0,0.,4.8,0.,4.8,0.,4.8,0.,4.8
1979-07-02 18:31:50.370 ,6,0,0.,4.8,0.,4.8,0.,4.8,1.,4.8
1979-07-02 18:31:55.170 ,6,0,0.,4.8,0.,4.8,0.,4.8,0.,4.8
1979-07-02 18:31:59.970 ,5,0,1.,4.8,0.,4.8,0.,4.8,0.,4.8
1979-07-02 18:32:04.770 ,5,0,0.,4.8,0.,4.8,0.,4.8,0.,4.8
1979-07-02 18:32:09.570 ,5,0,0.,4.8,0.,4.8,0.,4.8,0.,4.8
1979-07-02 18:32:14.370 ,5,0,0.,4.8,0.,4.8,0.,4.8,0.,4.8
1979-07-02 18:32:19.170 ,5,0,0.,4.8,0.,4.8,0.,4.8,0.,4.8
1979-07-02 18:32:23.970 ,5,0,0.,4.8,0.,4.8,0.,4.8,0.,4.8
1979-07-02 18:32:28.770 ,5,0,0.,4.8,0.,4.8,0.,4.8,0.,4.8
1979-07-02 18:32:33.570 ,5,0,0.,4.8,0.,4.8,0.,4.8,0.,4.8
1979-07-02 18:32:38.370 ,5,0,0.,4.8,0.,4.8,0.,4.8,0.,4.8
1979-07-02 18:32:43.170 ,5,0,0.,4.8,0.,4.8,0.,4.8,0.,4.8
1979-07-02 18:32:47.970 ,4,0,0.,4.8,0.,4.8,0.,4.8,0.,4.8
1979-07-02 18:32:52.770 ,4,0,0.,4.8,0.,4.8,1.,4.8,0.,4.8
1979-07-02 18:32:57.570 ,4,0,0.,4.8,0.,4.8,0.,4.8,0.,4.8
1979-07-02 18:33:02.370 ,4,0,0.,4.8,0.,4.8,0.,4.8,0.,4.8
1979-07-02 18:33:07.170 ,4,0,1.,4.8,0.,4.8,0.,4.8,0.,4.8
1979-07-02 18:33:11.970 ,4,0,2.,4.8,0.,4.8,0.,4.8,0.,4.8
1979-07-02 18:33:16.770 ,4,0,0.,4.8,0.,4.8,0.,4.8,0.,4.8
1979-07-02 18:33:21.570 ,4,0,0.,4.8,0.,4.8,1.,4.8,0.,4.8
1979-07-02 18:33:26.370 ,4,0,1.,4.8,0.,4.8,0.,4.8,0.,4.8
1979-07-02 18:33:31.170 ,4,0,0.,4.8,0.,4.8,0.,4.8,0.,4.8
1979-07-02 18:33:35.970 ,3,0,1.,4.8,0.,4.8,0.,4.8,0.,4.8
1979-07-02 18:33:40.770 ,3,0,0.,4.8,0.,4.8,0.,4.8,0.,4.8
1979-07-02 18:33:45.570 ,3,0,0.,4.8,0.,4.8,0.,4.8,0.,4.8
1979-07-02 18:33:50.370 ,3,0,0.,4.8,0.,4.8,0.,4.8,0.,4.8
1979-07-02 18:33:55.170 ,3,0,0.,4.8,0.,4.8,0.,4.8,0.,4.8
1979-07-02 18:33:59.970 ,3,0,0.,4.8,0.,4.8,1.,4.8,0.,4.8
1979-07-02 18:34:04.770 ,3,0,0.,4.8,0.,4.8,0.,4.8,0.,4.8